Year,Month,Day,Hour,Minute,Value (Times are PST for temperature in C)
2007,03,12,00,00,9.70
2007,03,12,00,01,9.70
2007,03,12,00,02,9.70
2007,03,12,00,03,9.70
2007,03,12,00,04,9.70
2007,03,12,00,05,9.70
2007,03,12,00,06,9.70
2007,03,12,00,07,9.70
2007,03,12,00,08,9.70
2007,03,12,00,09,9.70
2007,03,12,00,10,9.60
2007,03,12,00,11,9.60
2007,03,12,00,12,9.60
2007,03,12,00,13,9.60
2007,03,12,00,14,9.60
2007,03,12,00,15,9.60
2007,03,12,00,16,9.60
2007,03,12,00,17,9.60
2007,03,12,00,18,9.60
2007,03,12,00,19,9.60
2007,03,12,00,20,9.60
2007,03,12,00,21,9.60
2007,03,12,00,22,9.60
2007,03,12,00,23,9.60
2007,03,12,00,24,9.60
2007,03,12,00,25,9.60
2007,03,12,00,26,9.60
2007,03,12,00,27,9.60
2007,03,12,00,28,9.60
2007,03,12,00,29,9.60
2007,03,12,00,30,9.60
2007,03,12,00,31,9.60
2007,03,12,00,32,9.60
2007,03,12,00,33,9.60
2007,03,12,00,34,9.60
2007,03,12,00,35,9.60
2007,03,12,00,36,9.60
2007,03,12,00,37,9.60
2007,03,12,00,38,9.60
2007,03,12,00,39,9.60
2007,03,12,00,40,9.60
2007,03,12,00,41,9.60
2007,03,12,00,42,9.60
2007,03,12,00,43,9.60
2007,03,12,00,44,9.60
2007,03,12,00,45,9.60
2007,03,12,00,46,9.60
2007,03,12,00,47,9.50
2007,03,12,00,48,9.50
2007,03,12,00,49,9.50
2007,03,12,00,50,9.50
2007,03,12,00,51,9.50
2007,03,12,00,52,9.50
2007,03,12,00,53,9.50
2007,03,12,00,54,9.40
2007,03,12,00,55,9.40
2007,03,12,00,56,9.40
2007,03,12,00,57,9.40
2007,03,12,00,58,9.40
2007,03,12,00,59,9.40
2007,03,12,01,00,9.40
2007,03,12,01,01,9.40
2007,03,12,01,02,9.50
2007,03,12,01,03,9.50
2007,03,12,01,04,9.50
2007,03,12,01,05,9.50
2007,03,12,01,06,9.50
2007,03,12,01,07,9.60
2007,03,12,01,08,9.60
2007,03,12,01,09,9.50
2007,03,12,01,10,9.50
2007,03,12,01,11,9.50
2007,03,12,01,12,9.50
2007,03,12,01,13,9.50
2007,03,12,01,14,9.50
2007,03,12,01,15,9.50
2007,03,12,01,16,9.50
2007,03,12,01,17,9.50
2007,03,12,01,18,9.50
2007,03,12,01,19,9.50
2007,03,12,01,20,9.50
2007,03,12,01,21,9.50
2007,03,12,01,22,9.50
2007,03,12,01,23,9.50
2007,03,12,01,24,9.50
2007,03,12,01,25,9.50
2007,03,12,01,26,9.50
2007,03,12,01,27,9.60
2007,03,12,01,28,9.50
2007,03,12,01,29,9.50
2007,03,12,01,30,9.50
2007,03,12,01,31,9.50
2007,03,12,01,32,9.40
2007,03,12,01,33,9.40
2007,03,12,01,34,9.40
2007,03,12,01,35,9.40
2007,03,12,01,36,9.40
2007,03,12,01,37,9.40
2007,03,12,01,38,9.40
2007,03,12,01,39,9.30
2007,03,12,01,40,9.30
2007,03,12,01,41,9.30
2007,03,12,01,42,9.30
2007,03,12,01,43,9.30
2007,03,12,01,44,9.30
2007,03,12,01,45,9.30
2007,03,12,01,46,9.30
2007,03,12,01,47,9.30
2007,03,12,01,48,9.30
2007,03,12,01,49,9.30
2007,03,12,01,50,9.30
2007,03,12,01,51,9.30
2007,03,12,01,52,9.30
2007,03,12,01,53,9.30
2007,03,12,01,54,9.30
2007,03,12,01,55,9.30
2007,03,12,01,56,9.30
2007,03,12,01,57,9.30
2007,03,12,01,58,9.30
2007,03,12,01,59,9.30
2007,03,12,02,00,9.30
2007,03,12,02,01,9.30
2007,03,12,02,02,9.40
2007,03,12,02,03,9.40
2007,03,12,02,04,9.40
2007,03,12,02,05,9.40
2007,03,12,02,06,9.30
2007,03,12,02,07,9.30
2007,03,12,02,08,9.30
2007,03,12,02,09,9.30
2007,03,12,02,10,9.30
2007,03,12,02,11,9.30
2007,03,12,02,12,9.30
2007,03,12,02,13,9.30
2007,03,12,02,14,9.30
2007,03,12,02,15,9.30
2007,03,12,02,16,9.30
2007,03,12,02,17,9.30
2007,03,12,02,18,9.30
2007,03,12,02,19,9.30
2007,03,12,02,20,9.30
2007,03,12,02,21,9.30
2007,03,12,02,22,9.30
2007,03,12,02,23,9.30
2007,03,12,02,24,9.30
2007,03,12,02,25,9.30
2007,03,12,02,26,9.30
2007,03,12,02,27,9.30
2007,03,12,02,28,9.30
2007,03,12,02,29,9.30
2007,03,12,02,30,9.30
2007,03,12,02,31,9.30
2007,03,12,02,32,9.30
2007,03,12,02,33,9.30
2007,03,12,02,34,9.30
2007,03,12,02,35,9.30
2007,03,12,02,36,9.30
2007,03,12,02,37,9.30
2007,03,12,02,38,9.30
2007,03,12,02,39,9.30
2007,03,12,02,40,9.30
2007,03,12,02,41,9.20
2007,03,12,02,42,9.20
2007,03,12,02,43,9.20
2007,03,12,02,44,9.20
2007,03,12,02,45,9.20
2007,03,12,02,46,9.20
2007,03,12,02,47,9.20
2007,03,12,02,48,9.20
2007,03,12,02,49,9.20
2007,03,12,02,50,9.20
2007,03,12,02,51,9.20
2007,03,12,02,52,9.20
2007,03,12,02,53,9.20
2007,03,12,02,54,9.20
2007,03,12,02,55,9.20
2007,03,12,02,56,9.10
2007,03,12,02,57,9.10
2007,03,12,02,58,9.10
2007,03,12,02,59,9.10
2007,03,12,03,00,9.00
2007,03,12,03,01,8.90
2007,03,12,03,02,8.90
2007,03,12,03,03,8.90
2007,03,12,03,04,8.90
2007,03,12,03,05,8.80
2007,03,12,03,06,8.80
2007,03,12,03,07,8.70
2007,03,12,03,08,8.70
2007,03,12,03,09,8.70
2007,03,12,03,10,8.70
2007,03,12,03,11,8.70
2007,03,12,03,12,8.80
2007,03,12,03,13,8.80
2007,03,12,03,14,8.80
2007,03,12,03,15,8.80
2007,03,12,03,16,8.80
2007,03,12,03,17,8.80
2007,03,12,03,18,8.80
2007,03,12,03,19,8.80
2007,03,12,03,20,8.80
2007,03,12,03,21,8.80
2007,03,12,03,22,8.80
2007,03,12,03,23,8.80
2007,03,12,03,24,8.70
2007,03,12,03,25,8.70
2007,03,12,03,26,8.70
2007,03,12,03,27,8.60
2007,03,12,03,28,8.60
2007,03,12,03,29,8.60
2007,03,12,03,30,8.60
2007,03,12,03,31,8.50
2007,03,12,03,32,8.50
2007,03,12,03,33,8.50
2007,03,12,03,34,8.60
2007,03,12,03,35,8.50
2007,03,12,03,36,8.60
2007,03,12,03,37,8.60
2007,03,12,03,38,8.60
2007,03,12,03,39,8.60
2007,03,12,03,40,8.60
2007,03,12,03,41,8.60
2007,03,12,03,42,8.60
2007,03,12,03,43,8.60
2007,03,12,03,44,8.60
2007,03,12,03,45,8.60
2007,03,12,03,46,8.60
2007,03,12,03,47,8.60
2007,03,12,03,48,8.60
2007,03,12,03,49,8.60
2007,03,12,03,50,8.60
2007,03,12,03,51,8.60
2007,03,12,03,52,8.50
2007,03,12,03,53,8.40
2007,03,12,03,54,8.40
2007,03,12,03,55,8.40
2007,03,12,03,56,8.40
2007,03,12,03,57,8.40
2007,03,12,03,58,8.40
2007,03,12,03,59,8.30
2007,03,12,04,00,8.30
2007,03,12,04,01,8.20
2007,03,12,04,02,8.20
2007,03,12,04,03,8.10
2007,03,12,04,04,8.10
2007,03,12,04,05,8.00
2007,03,12,04,06,8.00
2007,03,12,04,07,8.00
2007,03,12,04,08,8.00
2007,03,12,04,09,7.90
2007,03,12,04,10,7.90
2007,03,12,04,11,7.80
2007,03,12,04,12,7.80
2007,03,12,04,13,7.80
2007,03,12,04,14,7.80
2007,03,12,04,15,7.80
2007,03,12,04,16,7.80
2007,03,12,04,17,7.80
2007,03,12,04,18,7.80
2007,03,12,04,19,7.80
2007,03,12,04,20,7.80
2007,03,12,04,21,7.80
2007,03,12,04,22,7.80
2007,03,12,04,23,7.80
2007,03,12,04,24,7.80
2007,03,12,04,25,7.70
2007,03,12,04,26,7.70
2007,03,12,04,27,7.80
2007,03,12,04,28,7.90
2007,03,12,04,29,7.90
2007,03,12,04,30,7.90
2007,03,12,04,31,7.80
2007,03,12,04,32,7.80
2007,03,12,04,33,7.80
2007,03,12,04,34,7.80
2007,03,12,04,35,7.80
2007,03,12,04,36,7.80
2007,03,12,04,37,7.80
2007,03,12,04,38,7.80
2007,03,12,04,39,7.70
2007,03,12,04,40,7.70
2007,03,12,04,41,7.70
2007,03,12,04,42,7.70
2007,03,12,04,43,7.70
2007,03,12,04,44,7.70
2007,03,12,04,45,7.70
2007,03,12,04,46,7.70
2007,03,12,04,47,7.70
2007,03,12,04,48,7.70
2007,03,12,04,49,7.60
2007,03,12,04,50,7.60
2007,03,12,04,51,7.60
2007,03,12,04,52,7.50
2007,03,12,04,53,7.60
2007,03,12,04,54,7.50
2007,03,12,04,55,7.50
2007,03,12,04,56,7.50
2007,03,12,04,57,7.40
2007,03,12,04,58,7.40
2007,03,12,04,59,7.30
2007,03,12,05,00,7.30
2007,03,12,05,01,7.30
2007,03,12,05,02,7.20
2007,03,12,05,03,7.20
2007,03,12,05,04,7.20
2007,03,12,05,05,7.20
2007,03,12,05,06,7.20
2007,03,12,05,07,7.20
2007,03,12,05,08,7.10
2007,03,12,05,09,7.10
2007,03,12,05,10,7.00
2007,03,12,05,11,7.00
2007,03,12,05,12,7.10
2007,03,12,05,13,7.10
2007,03,12,05,14,7.10
2007,03,12,05,15,7.10
2007,03,12,05,16,7.10
2007,03,12,05,17,7.20
2007,03,12,05,18,7.20
2007,03,12,05,19,7.20
2007,03,12,05,20,7.10
2007,03,12,05,21,7.10
2007,03,12,05,22,7.10
2007,03,12,05,23,7.10
2007,03,12,05,24,7.10
2007,03,12,05,25,7.00
2007,03,12,05,26,7.00
2007,03,12,05,27,7.00
2007,03,12,05,28,7.00
2007,03,12,05,29,7.00
2007,03,12,05,30,7.00
2007,03,12,05,31,6.90
2007,03,12,05,32,6.90
2007,03,12,05,33,6.90
2007,03,12,05,34,6.80
2007,03,12,05,35,6.80
2007,03,12,05,36,6.80
2007,03,12,05,37,6.80
2007,03,12,05,38,6.80
2007,03,12,05,39,6.80
2007,03,12,05,40,6.70
2007,03,12,05,41,6.70
2007,03,12,05,42,6.60
2007,03,12,05,43,6.60
2007,03,12,05,44,6.50
2007,03,12,05,45,6.40
2007,03,12,05,46,6.40
2007,03,12,05,47,6.30
2007,03,12,05,48,6.30
2007,03,12,05,49,6.30
2007,03,12,05,50,6.30
2007,03,12,05,51,6.20
2007,03,12,05,52,6.20
2007,03,12,05,53,6.20
2007,03,12,05,54,6.20
2007,03,12,05,55,6.20
2007,03,12,05,56,6.10
2007,03,12,05,57,6.10
2007,03,12,05,58,6.10
2007,03,12,05,59,6.10
2007,03,12,06,00,6.00
2007,03,12,06,01,6.00
2007,03,12,06,02,6.00
2007,03,12,06,03,6.00
2007,03,12,06,04,6.00
2007,03,12,06,05,6.00
2007,03,12,06,06,6.00
2007,03,12,06,07,5.90
2007,03,12,06,08,5.90
2007,03,12,06,09,5.90
2007,03,12,06,10,5.80
2007,03,12,06,11,5.80
2007,03,12,06,12,5.80
2007,03,12,06,13,5.80
2007,03,12,06,14,5.80
2007,03,12,06,15,5.80
2007,03,12,06,16,5.80
2007,03,12,06,17,5.80
2007,03,12,06,18,5.70
2007,03,12,06,19,5.70
2007,03,12,06,20,5.70
2007,03,12,06,21,5.70
2007,03,12,06,22,5.60
2007,03,12,06,23,5.60
2007,03,12,06,24,5.60
2007,03,12,06,25,5.60
2007,03,12,06,26,5.60
2007,03,12,06,27,5.60
2007,03,12,06,28,5.60
2007,03,12,06,29,5.50
2007,03,12,06,30,5.50
2007,03,12,06,31,5.50
2007,03,12,06,32,5.40
2007,03,12,06,33,5.40
2007,03,12,06,34,5.40
2007,03,12,06,35,5.40
2007,03,12,06,36,5.40
2007,03,12,06,37,5.40
2007,03,12,06,38,5.40
2007,03,12,06,39,5.40
2007,03,12,06,40,5.40
2007,03,12,06,41,5.40
2007,03,12,06,42,5.30
2007,03,12,06,43,5.30
2007,03,12,06,44,5.30
2007,03,12,06,45,5.30
2007,03,12,06,46,5.20
2007,03,12,06,47,5.20
2007,03,12,06,48,5.20
2007,03,12,06,49,5.20
2007,03,12,06,50,5.20
2007,03,12,06,51,5.20
2007,03,12,06,52,5.20
2007,03,12,06,53,5.20
2007,03,12,06,54,5.20
2007,03,12,06,55,5.20
2007,03,12,06,56,5.20
2007,03,12,06,57,5.10
2007,03,12,06,58,5.10
2007,03,12,06,59,5.10
2007,03,12,07,00,5.10
2007,03,12,07,01,5.10
2007,03,12,07,02,5.10
2007,03,12,07,03,5.10
2007,03,12,07,04,5.10
2007,03,12,07,05,5.10
2007,03,12,07,06,5.10
2007,03,12,07,07,5.10
2007,03,12,07,08,5.10
2007,03,12,07,09,5.00
2007,03,12,07,10,5.00
2007,03,12,07,11,5.00
2007,03,12,07,12,5.00
2007,03,12,07,13,5.00
2007,03,12,07,14,4.90
2007,03,12,07,15,4.90
2007,03,12,07,16,4.90
2007,03,12,07,17,4.80
2007,03,12,07,18,4.80
2007,03,12,07,19,4.70
2007,03,12,07,20,4.70
2007,03,12,07,21,4.60
2007,03,12,07,22,4.60
2007,03,12,07,23,4.60
2007,03,12,07,24,4.50
2007,03,12,07,25,4.50
2007,03,12,07,26,4.40
2007,03,12,07,27,4.40
2007,03,12,07,28,4.40
2007,03,12,07,29,4.30
2007,03,12,07,30,4.30
2007,03,12,07,31,4.30
2007,03,12,07,32,4.20
2007,03,12,07,33,4.20
2007,03,12,07,34,4.20
2007,03,12,07,35,4.20
2007,03,12,07,36,4.20
2007,03,12,07,37,4.20
2007,03,12,07,38,4.20
2007,03,12,07,39,4.20
2007,03,12,07,40,4.10
2007,03,12,07,41,4.10
2007,03,12,07,42,4.10
2007,03,12,07,43,4.10
2007,03,12,07,44,4.10
2007,03,12,07,45,4.10
2007,03,12,07,46,4.00
2007,03,12,07,47,4.00
2007,03,12,07,48,4.00
2007,03,12,07,49,3.90
2007,03,12,07,50,3.90
2007,03,12,07,51,4.00
2007,03,12,07,52,4.00
2007,03,12,07,53,4.00
2007,03,12,07,54,4.00
2007,03,12,07,55,4.00
2007,03,12,07,56,4.00
2007,03,12,07,57,4.00
2007,03,12,07,58,4.10
2007,03,12,07,59,4.10
2007,03,12,08,00,4.10
2007,03,12,08,01,4.00
2007,03,12,08,02,4.00
2007,03,12,08,03,4.00
2007,03,12,08,04,3.90
2007,03,12,08,05,3.90
2007,03,12,08,06,3.90
2007,03,12,08,07,3.90
2007,03,12,08,08,3.90
2007,03,12,08,09,3.90
2007,03,12,08,10,3.90
2007,03,12,08,11,3.90
2007,03,12,08,12,3.90
2007,03,12,08,13,3.90
2007,03,12,08,14,3.90
2007,03,12,08,15,3.90
2007,03,12,08,16,3.90
2007,03,12,08,17,3.90
2007,03,12,08,18,3.90
2007,03,12,08,19,3.80
2007,03,12,08,20,3.90
2007,03,12,08,21,3.90
2007,03,12,08,22,3.90
2007,03,12,08,23,3.90
2007,03,12,08,24,3.90
2007,03,12,08,25,3.90
2007,03,12,08,26,3.90
2007,03,12,08,27,3.90
2007,03,12,08,28,3.90
2007,03,12,08,29,3.90
2007,03,12,08,30,3.90
2007,03,12,08,31,3.90
2007,03,12,08,32,3.90
2007,03,12,08,33,3.90
2007,03,12,08,34,3.90
2007,03,12,08,35,3.90
2007,03,12,08,36,3.90
2007,03,12,08,37,3.90
2007,03,12,08,38,3.90
2007,03,12,08,39,3.90
2007,03,12,08,40,3.90
2007,03,12,08,41,3.90
2007,03,12,08,42,3.90
2007,03,12,08,43,3.90
2007,03,12,08,44,3.90
2007,03,12,08,45,3.90
2007,03,12,08,46,3.90
2007,03,12,08,47,3.90
2007,03,12,08,48,3.90
2007,03,12,08,49,3.90
2007,03,12,08,50,3.90
2007,03,12,08,51,3.90
2007,03,12,08,52,3.90
2007,03,12,08,53,3.90
2007,03,12,08,54,3.90
2007,03,12,08,55,4.00
2007,03,12,08,56,4.00
2007,03,12,08,57,4.10
2007,03,12,08,58,4.10
2007,03,12,08,59,4.10
2007,03,12,09,00,4.10
2007,03,12,09,01,4.20
2007,03,12,09,02,4.20
2007,03,12,09,03,4.30
2007,03,12,09,04,4.30
2007,03,12,09,05,4.30
2007,03,12,09,06,4.30
2007,03,12,09,07,4.30
2007,03,12,09,08,4.20
2007,03,12,09,09,4.20
2007,03,12,09,10,4.20
2007,03,12,09,11,4.20
2007,03,12,09,12,4.20
2007,03,12,09,13,4.20
2007,03,12,09,14,4.30
2007,03,12,09,15,4.30
2007,03,12,09,16,4.30
2007,03,12,09,17,4.30
2007,03,12,09,18,4.30
2007,03,12,09,19,4.40
2007,03,12,09,20,4.40
2007,03,12,09,21,4.40
2007,03,12,09,22,4.40
2007,03,12,09,23,4.50
2007,03,12,09,24,4.40
2007,03,12,09,25,4.40
2007,03,12,09,26,4.40
2007,03,12,09,27,4.50
2007,03,12,09,28,4.50
2007,03,12,09,29,4.50
2007,03,12,09,30,4.60
2007,03,12,09,31,4.60
2007,03,12,09,32,4.50
2007,03,12,09,33,4.50
2007,03,12,09,34,4.40
2007,03,12,09,35,4.40
2007,03,12,09,36,4.50
2007,03,12,09,37,4.50
2007,03,12,09,38,4.40
2007,03,12,09,39,4.40
2007,03,12,09,40,4.40
2007,03,12,09,41,4.50
2007,03,12,09,42,4.40
2007,03,12,09,43,4.40
2007,03,12,09,44,4.40
2007,03,12,09,45,4.50
2007,03,12,09,46,4.50
2007,03,12,09,47,4.50
2007,03,12,09,48,4.60
2007,03,12,09,49,4.70
2007,03,12,09,50,4.70
2007,03,12,09,51,4.80
2007,03,12,09,52,4.80
2007,03,12,09,53,4.90
2007,03,12,09,54,5.00
2007,03,12,09,55,5.10
2007,03,12,09,56,5.20
2007,03,12,09,57,5.20
2007,03,12,09,58,5.30
2007,03,12,09,59,5.40
2007,03,12,10,00,5.50
2007,03,12,10,01,5.60
2007,03,12,10,02,5.70
2007,03,12,10,03,5.80
2007,03,12,10,04,5.80
2007,03,12,10,05,5.90
2007,03,12,10,06,6.00
2007,03,12,10,07,6.00
2007,03,12,10,08,6.00
2007,03,12,10,09,5.90
2007,03,12,10,10,5.80
2007,03,12,10,11,5.70
2007,03,12,10,12,5.70
2007,03,12,10,13,5.70
2007,03,12,10,14,5.60
2007,03,12,10,15,5.60
2007,03,12,10,16,5.60
2007,03,12,10,17,5.60
2007,03,12,10,18,5.50
2007,03,12,10,19,5.50
2007,03,12,10,20,5.40
2007,03,12,10,21,5.40
2007,03,12,10,22,5.40
2007,03,12,10,23,5.30
2007,03,12,10,24,5.30
2007,03,12,10,25,5.30
2007,03,12,10,26,5.30
2007,03,12,10,27,5.40
2007,03,12,10,28,5.40
2007,03,12,10,29,5.40
2007,03,12,10,30,5.40
2007,03,12,10,31,5.40
2007,03,12,10,32,5.40
2007,03,12,10,33,5.30
2007,03,12,10,34,5.30
2007,03,12,10,35,5.20
2007,03,12,10,36,5.20
2007,03,12,10,37,5.10
2007,03,12,10,38,5.00
2007,03,12,10,39,4.90
2007,03,12,10,40,4.90
2007,03,12,10,41,4.80
2007,03,12,10,42,4.70
2007,03,12,10,43,4.70
2007,03,12,10,44,4.60
2007,03,12,10,45,4.60
2007,03,12,10,46,4.50
2007,03,12,10,47,4.50
2007,03,12,10,48,4.50
2007,03,12,10,49,4.40
2007,03,12,10,50,4.40
2007,03,12,10,51,4.40
2007,03,12,10,52,4.50
2007,03,12,10,53,4.40
2007,03,12,10,54,4.50
2007,03,12,10,55,4.50
2007,03,12,10,56,4.60
2007,03,12,10,57,4.60
2007,03,12,10,58,4.70
2007,03,12,10,59,4.80
2007,03,12,11,00,4.90
2007,03,12,11,01,5.00
2007,03,12,11,02,5.10
2007,03,12,11,03,5.30
2007,03,12,11,04,5.30
2007,03,12,11,05,5.40
2007,03,12,11,06,5.40
2007,03,12,11,07,5.50
2007,03,12,11,08,5.50
2007,03,12,11,09,5.50
2007,03,12,11,10,5.50
2007,03,12,11,11,5.50
2007,03,12,11,12,5.60
2007,03,12,11,13,5.70
2007,03,12,11,14,5.80
2007,03,12,11,15,5.90
2007,03,12,11,16,6.00
2007,03,12,11,17,6.00
2007,03,12,11,18,6.10
2007,03,12,11,19,6.10
2007,03,12,11,20,6.10
2007,03,12,11,21,6.10
2007,03,12,11,22,6.10
2007,03,12,11,23,6.10
2007,03,12,11,24,6.20
2007,03,12,11,25,6.20
2007,03,12,11,26,6.20
2007,03,12,11,27,6.20
2007,03,12,11,28,6.20
2007,03,12,11,29,6.20
2007,03,12,11,30,6.20
2007,03,12,11,31,6.30
2007,03,12,11,32,6.20
2007,03,12,11,33,6.20
2007,03,12,11,34,6.20
2007,03,12,11,35,6.10
2007,03,12,11,36,6.00
2007,03,12,11,37,5.90
2007,03,12,11,38,5.90
2007,03,12,11,39,6.00
2007,03,12,11,40,6.00
2007,03,12,11,41,6.10
2007,03,12,11,42,6.10
2007,03,12,11,43,6.10
2007,03,12,11,44,6.20
2007,03,12,11,45,6.30
2007,03,12,11,46,6.40
2007,03,12,11,47,6.30
2007,03,12,11,48,6.30
2007,03,12,11,49,6.40
2007,03,12,11,50,6.40
2007,03,12,11,51,6.40
2007,03,12,11,52,6.40
2007,03,12,11,53,6.50
2007,03,12,11,54,6.50
2007,03,12,11,55,6.50
2007,03,12,11,56,6.50
2007,03,12,11,57,6.50
2007,03,12,11,58,6.50
2007,03,12,11,59,6.40
2007,03,12,12,00,6.50
2007,03,12,12,01,6.50
2007,03,12,12,02,6.60
2007,03,12,12,03,6.60
2007,03,12,12,04,6.70
2007,03,12,12,05,6.70
2007,03,12,12,06,6.80
2007,03,12,12,07,6.80
2007,03,12,12,08,6.70
2007,03,12,12,09,6.60
2007,03,12,12,10,6.50
2007,03,12,12,11,6.30
2007,03,12,12,12,6.10
2007,03,12,12,13,6.00
2007,03,12,12,14,5.90
2007,03,12,12,15,5.70
2007,03,12,12,16,5.60
2007,03,12,12,17,5.50
2007,03,12,12,18,5.30
2007,03,12,12,19,5.00
2007,03,12,12,20,4.80
2007,03,12,12,21,4.70
2007,03,12,12,22,4.60
2007,03,12,12,23,4.50
2007,03,12,12,24,4.40
2007,03,12,12,25,4.30
2007,03,12,12,26,4.30
2007,03,12,12,27,4.30
2007,03,12,12,28,4.30
2007,03,12,12,29,4.30
2007,03,12,12,30,4.30
2007,03,12,12,31,4.30
2007,03,12,12,32,4.30
2007,03,12,12,33,4.30
2007,03,12,12,34,4.40
2007,03,12,12,35,4.40
2007,03,12,12,36,4.40
2007,03,12,12,37,4.50
2007,03,12,12,38,4.50
2007,03,12,12,39,4.50
2007,03,12,12,40,4.60
2007,03,12,12,41,4.60
2007,03,12,12,42,4.60
2007,03,12,12,43,4.70
2007,03,12,12,44,4.70
2007,03,12,12,45,4.80
2007,03,12,12,46,4.90
2007,03,12,12,47,5.00
2007,03,12,12,48,5.10
2007,03,12,12,49,5.20
2007,03,12,12,50,5.30
2007,03,12,12,51,5.40
2007,03,12,12,52,5.50
2007,03,12,12,53,5.60
2007,03,12,12,54,5.70
2007,03,12,12,55,5.80
2007,03,12,12,56,5.80
2007,03,12,12,57,5.90
2007,03,12,12,58,6.00
2007,03,12,12,59,6.10
2007,03,12,13,00,6.20
2007,03,12,13,01,6.20
2007,03,12,13,02,6.20
2007,03,12,13,03,6.30
2007,03,12,13,04,6.30
2007,03,12,13,05,6.30
2007,03,12,13,06,6.30
2007,03,12,13,07,6.30
2007,03,12,13,08,6.30
2007,03,12,13,09,6.40
2007,03,12,13,10,6.40
2007,03,12,13,11,6.50
2007,03,12,13,12,6.60
2007,03,12,13,13,6.70
2007,03,12,13,14,6.70
2007,03,12,13,15,6.70
2007,03,12,13,16,6.70
2007,03,12,13,17,6.70
2007,03,12,13,18,6.80
2007,03,12,13,19,6.80
2007,03,12,13,20,6.80
2007,03,12,13,21,6.80
2007,03,12,13,22,6.90
2007,03,12,13,23,7.00
2007,03,12,13,24,7.10
2007,03,12,13,25,7.10
2007,03,12,13,26,7.10
2007,03,12,13,27,7.20
2007,03,12,13,28,7.20
2007,03,12,13,29,7.00
2007,03,12,13,30,7.00
2007,03,12,13,31,7.00
2007,03,12,13,32,6.90
2007,03,12,13,33,6.90
2007,03,12,13,34,7.00
2007,03,12,13,35,7.10
2007,03,12,13,36,7.10
2007,03,12,13,37,7.20
2007,03,12,13,38,7.20
2007,03,12,13,39,7.10
2007,03,12,13,40,7.10
2007,03,12,13,41,7.10
2007,03,12,13,42,7.10
2007,03,12,13,43,7.20
2007,03,12,13,44,7.20
2007,03,12,13,45,7.20
2007,03,12,13,46,7.20
2007,03,12,13,47,7.20
2007,03,12,13,48,7.20
2007,03,12,13,49,7.20
2007,03,12,13,50,7.20
2007,03,12,13,51,7.20
2007,03,12,13,52,7.20
2007,03,12,13,53,7.10
2007,03,12,13,54,7.20
2007,03,12,13,55,7.20
2007,03,12,13,56,7.10
2007,03,12,13,57,7.10
2007,03,12,13,58,7.00
2007,03,12,13,59,6.90
2007,03,12,14,00,6.80
2007,03,12,14,01,6.80
2007,03,12,14,02,6.80
2007,03,12,14,03,6.80
2007,03,12,14,04,6.70
2007,03,12,14,05,6.70
2007,03,12,14,06,6.60
2007,03,12,14,07,6.50
2007,03,12,14,08,6.30
2007,03,12,14,09,6.00
2007,03,12,14,10,5.70
2007,03,12,14,11,5.40
2007,03,12,14,12,5.20
2007,03,12,14,13,5.00
2007,03,12,14,14,4.90
2007,03,12,14,15,4.80
2007,03,12,14,16,4.70
2007,03,12,14,17,4.70
2007,03,12,14,18,4.60
2007,03,12,14,19,4.50
2007,03,12,14,20,4.50
2007,03,12,14,21,4.50
2007,03,12,14,22,4.50
2007,03,12,14,23,4.50
2007,03,12,14,24,4.40
2007,03,12,14,25,4.40
2007,03,12,14,26,4.40
2007,03,12,14,27,4.40
2007,03,12,14,28,4.40
2007,03,12,14,29,4.40
2007,03,12,14,30,4.50
2007,03,12,14,31,4.50
2007,03,12,14,32,4.50
2007,03,12,14,33,4.40
2007,03,12,14,34,4.40
2007,03,12,14,35,4.40
2007,03,12,14,36,4.40
2007,03,12,14,37,4.40
2007,03,12,14,38,4.40
2007,03,12,14,39,4.50
2007,03,12,14,40,4.50
2007,03,12,14,41,4.60
2007,03,12,14,42,4.60
2007,03,12,14,43,4.60
2007,03,12,14,44,4.60
2007,03,12,14,45,4.70
2007,03,12,14,46,4.70
2007,03,12,14,47,4.70
2007,03,12,14,48,4.70
2007,03,12,14,49,4.80
2007,03,12,14,50,4.80
2007,03,12,14,51,4.90
2007,03,12,14,52,4.90
2007,03,12,14,53,5.00
2007,03,12,14,54,5.10
2007,03,12,14,55,5.10
2007,03,12,14,56,5.20
2007,03,12,14,57,5.30
2007,03,12,14,58,5.30
2007,03,12,14,59,5.40
2007,03,12,15,00,5.40
2007,03,12,15,01,5.50
2007,03,12,15,02,5.60
2007,03,12,15,03,5.70
2007,03,12,15,04,5.80
2007,03,12,15,05,5.90
2007,03,12,15,06,5.90
2007,03,12,15,07,5.90
2007,03,12,15,08,6.00
2007,03,12,15,09,6.10
2007,03,12,15,10,6.20
2007,03,12,15,11,6.20
2007,03,12,15,12,6.30
2007,03,12,15,13,6.30
2007,03,12,15,14,6.40
2007,03,12,15,15,6.50
2007,03,12,15,16,6.50
2007,03,12,15,17,6.60
2007,03,12,15,18,6.60
2007,03,12,15,19,6.70
2007,03,12,15,20,6.80
2007,03,12,15,21,6.90
2007,03,12,15,22,7.00
2007,03,12,15,23,7.00
2007,03,12,15,24,7.20
2007,03,12,15,25,7.20
2007,03,12,15,26,7.30
2007,03,12,15,27,7.50
2007,03,12,15,28,7.60
2007,03,12,15,29,7.60
2007,03,12,15,30,7.70
2007,03,12,15,31,7.80
2007,03,12,15,32,7.90
2007,03,12,15,33,7.80
2007,03,12,15,34,7.80
2007,03,12,15,35,7.70
2007,03,12,15,36,7.70
2007,03,12,15,37,7.70
2007,03,12,15,38,7.70
2007,03,12,15,39,7.60
2007,03,12,15,40,7.60
2007,03,12,15,41,7.60
2007,03,12,15,42,7.60
2007,03,12,15,43,7.60
2007,03,12,15,44,7.60
2007,03,12,15,45,7.60
2007,03,12,15,46,7.60
2007,03,12,15,47,7.70
2007,03,12,15,48,7.60
2007,03,12,15,49,7.50
2007,03,12,15,50,7.40
2007,03,12,15,51,7.30
2007,03,12,15,52,7.30
2007,03,12,15,53,7.30
2007,03,12,15,54,7.30
2007,03,12,15,55,7.30
2007,03,12,15,56,7.30
2007,03,12,15,57,7.30
2007,03,12,15,58,7.30
2007,03,12,15,59,7.40
2007,03,12,16,00,7.40
2007,03,12,16,01,7.50
2007,03,12,16,02,7.50
2007,03,12,16,03,7.60
2007,03,12,16,04,7.60
2007,03,12,16,05,7.50
2007,03,12,16,06,7.40
2007,03,12,16,07,7.30
2007,03,12,16,08,7.20
2007,03,12,16,09,7.10
2007,03,12,16,10,7.00
2007,03,12,16,11,6.90
2007,03,12,16,12,6.90
2007,03,12,16,13,6.90
2007,03,12,16,14,6.90
2007,03,12,16,15,6.90
2007,03,12,16,16,6.90
2007,03,12,16,17,6.90
2007,03,12,16,18,6.90
2007,03,12,16,19,6.90
2007,03,12,16,20,6.90
2007,03,12,16,21,6.90
2007,03,12,16,22,7.00
2007,03,12,16,23,7.10
2007,03,12,16,24,7.10
2007,03,12,16,25,7.20
2007,03,12,16,26,7.20
2007,03,12,16,27,7.20
2007,03,12,16,28,7.10
2007,03,12,16,29,7.10
2007,03,12,16,30,7.00
2007,03,12,16,31,7.00
2007,03,12,16,32,6.90
2007,03,12,16,33,6.90
2007,03,12,16,34,6.80
2007,03,12,16,35,6.80
2007,03,12,16,36,6.90
2007,03,12,16,37,6.90
2007,03,12,16,38,6.90
2007,03,12,16,39,6.90
2007,03,12,16,40,7.00
2007,03,12,16,41,7.00
2007,03,12,16,42,7.00
2007,03,12,16,43,7.00
2007,03,12,16,44,7.00
2007,03,12,16,45,7.00
2007,03,12,16,46,7.00
2007,03,12,16,47,7.00
2007,03,12,16,48,6.90
2007,03,12,16,49,6.80
2007,03,12,16,50,6.80
2007,03,12,16,51,6.80
2007,03,12,16,52,6.80
2007,03,12,16,53,6.80
2007,03,12,16,54,6.80
2007,03,12,16,55,6.80
2007,03,12,16,56,6.80
2007,03,12,16,57,6.80
2007,03,12,16,58,6.90
2007,03,12,16,59,6.90
2007,03,12,17,00,6.90
2007,03,12,17,01,6.90
2007,03,12,17,02,6.90
2007,03,12,17,03,6.90
2007,03,12,17,04,6.90
2007,03,12,17,05,6.80
2007,03,12,17,06,6.80
2007,03,12,17,07,6.80
2007,03,12,17,08,6.80
2007,03,12,17,09,6.80
2007,03,12,17,10,6.80
2007,03,12,17,11,6.80
2007,03,12,17,12,6.80
2007,03,12,17,13,6.80
2007,03,12,17,14,6.90
2007,03,12,17,15,6.90
2007,03,12,17,16,6.90
2007,03,12,17,17,6.80
2007,03,12,17,18,6.80
2007,03,12,17,19,6.80
2007,03,12,17,20,6.80
2007,03,12,17,21,6.90
2007,03,12,17,22,6.90
2007,03,12,17,23,6.90
2007,03,12,17,24,6.90
2007,03,12,17,25,6.90
2007,03,12,17,26,6.90
2007,03,12,17,27,6.90
2007,03,12,17,28,6.80
2007,03,12,17,29,6.80
2007,03,12,17,30,6.70
2007,03,12,17,31,6.70
2007,03,12,17,32,6.60
2007,03,12,17,33,6.60
2007,03,12,17,34,6.50
2007,03,12,17,35,6.60
2007,03,12,17,36,6.60
2007,03,12,17,37,6.60
2007,03,12,17,38,6.60
2007,03,12,17,39,6.60
2007,03,12,17,40,6.60
2007,03,12,17,41,6.40
2007,03,12,17,42,6.20
2007,03,12,17,43,6.10
2007,03,12,17,44,6.00
2007,03,12,17,45,6.00
2007,03,12,17,46,5.90
2007,03,12,17,47,5.80
2007,03,12,17,48,5.80
2007,03,12,17,49,5.80
2007,03,12,17,50,5.70
2007,03,12,17,51,5.70
2007,03,12,17,52,5.70
2007,03,12,17,53,5.70
2007,03,12,17,54,5.70
2007,03,12,17,55,5.60
2007,03,12,17,56,5.60
2007,03,12,17,57,5.60
2007,03,12,17,58,5.60
2007,03,12,17,59,5.60
2007,03,12,18,00,5.60
2007,03,12,18,01,5.60
2007,03,12,18,02,5.60
2007,03,12,18,03,5.70
2007,03,12,18,04,5.70
2007,03,12,18,05,5.70
2007,03,12,18,06,5.70